Regional Weather Roundup
Issued by NWS

Home | Current Version | Previous Version | Graphics & Text | Print | Product List | Glossary On
Versions: 1 2 3 4 5 6 7 8 9 10 11 12 13 14 15 16 17 18 19 20 21 22 23 24 25 26 27 28 29 30 31 32 33 34 35 36 37 38 39 40 41 42 43 44 45 46 47 48 49 50
000
ASUS43 KFSD 132110
RWRSD

WEATHER ROUNDUP FOR SOUTH DAKOTA
NATIONAL WEATHER SERVICE SIOUX FALLS SD
400 PM CDT SUN OCT 13 2019

NOTE: "FAIR" INDICATES FEW OR NO CLOUDS BELOW 12,000 FEET WITH NO
SIGNIFICANT WEATHER AND/OR OBSTRUCTIONS TO VISIBILITY.


SDZ001>005-009-010-012>017-132200-
NORTHWEST AND NORTH CENTRAL SOUTH DAKOTA

CITY           SKY/WX    TMP DP  RH WIND       PRES   REMARKS
BUFFALO          N/A     53  18  25 NW8       29.86F
FAITH            N/A     46  20  35 W8        29.91
MOBRIDGE       CLOUDY    43  31  62 NW9       29.90R
$$

SDZ012>016-024>037-041>051-057-063-072>074-132200-
SOUTHWEST AND SOUTH CENTRAL SOUTH DAKOTA

CITY           SKY/WX    TMP DP  RH WIND       PRES   REMARKS
RAPID CTY ARPT SUNNY     53  21  28 SW3       29.91F
PIERRE         SUNNY     49  30  48 W14       29.91F
CUSTER         SUNNY     56  19  23 W10G18    29.92S
ELLSWORTH AFB  SUNNY     55  25  32 CALM      29.91F
PHILIP         SUNNY     54  20  26 NW10      29.92F
PINE RIDGE     SUNNY     59  24  26 VRB3      29.91F
SPEARFISH      FAIR      54  27  35 E5        29.91S
WINNER         FAIR      53  23  31 NW17G23   29.92F
$$

SDZ004>011-016>023-039-040-132200-
NORTHEAST SOUTH DAKOTA

CITY           SKY/WX    TMP DP  RH WIND       PRES   REMARKS
ABERDEEN       CLOUDY    38  28  67 NW13      29.92R
WATERTOWN      CLOUDY    36  29  75 W14       29.88R
BROOKINGS      CLOUDY    39  30  70 W16       29.89S
SISSETON         N/A     38  30  73 NW15      29.87R
$$

SDZ017-020-022-023-036>040-048>070-132200-
SOUTHEAST SOUTH DAKOTA

CITY           SKY/WX    TMP DP  RH WIND       PRES   REMARKS
SIOUX FALLS    PTSUNNY   43  30  60 NW16      29.91R
HURON          CLOUDY    41  31  67 NW14      29.93R
MADISON        CLOUDY    37  32  81 NW15      29.91R
MITCHELL       PTSUNNY   46  32  58 NW13G23   29.93F
YANKTON        PTSUNNY   49  33  54 W17G29    29.93S
$$

ABBREVIATIONS USED IN REMARKS
   TC - TEMPERATURE IN CELSIUS
  WCI - WIND CHILL INDEX
   HX - HEAT INDEX
  VSB - VISIBILITY




USA.gov is the U.S. government's official web portal to all federal, state and local government web resources and services.